Back to catalog

STARLINK-11531

AliveCommunicationsVLEO
NORAD 62841·PAYLOAD·🇺🇸 United States

Launched Jan 27, 2025 from Cape Canaveral Space Force Station

Loading…

Next Passes (next 24 hours)

TLE

FreshSource: CelesTrak SupGP

Epoch: Sep 14, 2026, 21:32 UTC

1 62841C 25019N   26257.89770833  .00053943  00000+0  41904-3 0  2576
2 62841  43.0006 245.6467 0001501 259.0263 205.8085 15.70808442    12

Track STARLINK-11531 in real time with AllMySat

Download on the App Store